Time,TemperatureF,DewpointF,PressureIn,WindDirection,WindDirectionDegrees,WindSpeedMPH,WindSpeedGustMPH,Humidity,HourlyPrecipIn,Conditions,Clouds,dailyrainin,SolarRadiationWatts/m^2,SoftwareType,DateUTC
2013-08-14 00:12:00,41.0,40.0,-100.00,SSW,213,0.0,0.0,98,0.00,,,0.00,0.000000,,2013-08-14 05:12:00,
2013-08-14 00:22:00,41.0,40.0,-100.00,SSW,213,0.0,0.0,98,0.00,,,0.00,0.000000,,2013-08-14 05:22:00,
2013-08-14 00:32:00,41.0,40.0,-100.00,SSW,213,0.0,0.0,98,0.00,,,0.00,0.000000,,2013-08-14 05:32:00,
2013-08-14 01:11:00,39.0,39.0,-100.00,SSW,199,0.0,0.0,99,0.00,,,0.00,0.000000,,2013-08-14 06:11:00,
2013-08-14 01:21:00,39.0,39.0,-100.00,SSW,199,0.0,0.0,99,0.00,,,0.00,0.000000,,2013-08-14 06:21:00,
2013-08-14 01:31:00,39.0,39.0,-100.00,SSW,199,0.0,0.0,99,0.00,,,0.00,0.000000,,2013-08-14 06:31:00,
2013-08-14 02:11:00,37.0,37.0,-100.00,South,174,0.0,0.0,99,0.00,,,0.00,0.000000,,2013-08-14 07:11:00,
2013-08-14 02:21:00,37.0,37.0,-100.00,South,174,0.0,0.0,99,0.00,,,0.00,0.000000,,2013-08-14 07:21:00,
2013-08-14 02:31:00,37.0,37.0,-100.00,South,174,0.0,0.0,99,0.00,,,0.00,0.000000,,2013-08-14 07:31:00,
2013-08-14 03:11:00,36.0,35.0,-100.00,South,176,0.0,0.0,98,0.00,,,0.00,0.000000,,2013-08-14 08:11:00,
2013-08-14 03:21:00,36.0,35.0,-100.00,South,176,0.0,0.0,98,0.00,,,0.00,0.000000,,2013-08-14 08:21:00,
2013-08-14 03:31:00,36.0,35.0,-100.00,South,176,0.0,0.0,98,0.00,,,0.00,0.000000,,2013-08-14 08:31:00,
2013-08-14 04:11:00,35.0,35.0,-100.00,South,177,0.0,0.0,99,0.00,,,0.00,0.000000,,2013-08-14 09:11:00,
2013-08-14 04:21:00,35.0,35.0,-100.00,South,177,0.0,0.0,99,0.00,,,0.00,0.000000,,2013-08-14 09:21:00,
2013-08-14 04:33:00,35.0,35.0,-100.00,South,177,0.0,0.0,99,0.00,,,0.00,0.000000,,2013-08-14 09:33:00,
2013-08-14 05:12:00,35.0,35.0,-100.00,SE,143,0.0,0.0,99,0.00,,,0.00,0.000000,,2013-08-14 10:12:00,
2013-08-14 05:23:00,35.0,35.0,-100.00,SE,143,0.0,0.0,99,0.00,,,0.00,0.000000,,2013-08-14 10:23:00,
2013-08-14 05:32:00,35.0,35.0,-100.00,SE,143,0.0,0.0,99,0.00,,,0.00,0.000000,,2013-08-14 10:32:00,
2013-08-14 06:11:00,39.0,39.0,-100.00,South,191,2.0,3.0,100,0.00,,,0.00,0.000000,,2013-08-14 11:11:00,
2013-08-14 06:21:00,39.0,39.0,-100.00,South,191,2.0,3.0,100,0.00,,,0.00,0.000000,,2013-08-14 11:21:00,
2013-08-14 06:32:00,39.0,39.0,-100.00,South,191,2.0,3.0,100,0.00,,,0.00,0.000000,,2013-08-14 11:32:00,
2013-08-14 07:11:00,42.0,42.0,-100.00,SSW,193,0.0,3.0,100,0.00,,,0.00,8.000000,,2013-08-14 12:11:00,
2013-08-14 07:21:00,42.0,42.0,-100.00,SSW,193,0.0,3.0,100,0.00,,,0.00,8.000000,,2013-08-14 12:21:00,
2013-08-14 07:31:00,42.0,42.0,-100.00,SSW,193,0.0,3.0,100,0.00,,,0.00,8.000000,,2013-08-14 12:31:00,
2013-08-14 08:11:00,45.0,45.0,-100.00,SE,141,0.0,3.0,99,0.00,,,0.00,47.000000,,2013-08-14 13:11:00,
2013-08-14 08:22:00,45.0,45.0,-100.00,SE,141,0.0,3.0,99,0.00,,,0.00,47.000000,,2013-08-14 13:22:00,
2013-08-14 08:31:00,45.0,45.0,-100.00,SE,141,0.0,3.0,99,0.00,,,0.00,47.000000,,2013-08-14 13:31:00,
2013-08-14 09:11:00,51.0,49.0,-100.00,WNW,285,0.0,3.0,94,0.00,,,0.00,126.000000,,2013-08-14 14:11:00,
2013-08-14 09:22:00,51.0,49.0,-100.00,WNW,285,0.0,3.0,94,0.00,,,0.00,126.000000,,2013-08-14 14:22:00,
2013-08-14 09:32:00,51.0,49.0,-100.00,WNW,285,0.0,3.0,94,0.00,,,0.00,126.000000,,2013-08-14 14:32:00,
2013-08-14 10:11:00,57.0,48.0,-100.00,WNW,283,4.0,8.0,72,0.00,,,0.00,262.000000,,2013-08-14 15:11:00,
2013-08-14 10:22:00,57.0,48.0,-100.00,WNW,283,4.0,8.0,72,0.00,,,0.00,262.000000,,2013-08-14 15:22:00,
2013-08-14 10:33:00,57.0,48.0,-100.00,WNW,283,4.0,8.0,72,0.00,,,0.00,262.000000,,2013-08-14 15:33:00,
2013-08-14 11:13:00,62.0,46.0,-100.00,North,3,6.0,11.0,55,0.00,,,0.00,647.000000,,2013-08-14 16:13:00,
2013-08-14 11:28:00,62.0,46.0,-100.00,North,3,6.0,11.0,55,0.00,,,0.00,647.000000,,2013-08-14 16:28:00,
2013-08-14 11:34:00,62.0,46.0,-100.00,North,3,6.0,11.0,55,0.00,,,0.00,647.000000,,2013-08-14 16:34:00,
2013-08-14 12:20:00,63.0,45.0,-100.00,North,2,6.0,12.0,52,0.00,,,0.00,689.000000,,2013-08-14 17:20:00,
2013-08-14 12:29:00,63.0,45.0,-100.00,North,2,6.0,12.0,52,0.00,,,0.00,689.000000,,2013-08-14 17:29:00,
2013-08-14 12:35:00,63.0,45.0,-100.00,North,2,6.0,12.0,52,0.00,,,0.00,689.000000,,2013-08-14 17:35:00,
2013-08-14 12:37:00,64.0,47.0,-100.00,NNE,19,5.0,11.0,54,0.00,,,0.00,519.000000,,2013-08-14 17:37:00,
2013-08-14 13:28:00,64.0,-99.9,-100.00,NNE,19,5.0,11.0,54,0.00,,,0.00,519.000000,,2013-08-14 18:28:00,
2013-08-14 13:34:00,64.0,47.0,-100.00,NNE,19,5.0,11.0,54,0.00,,,0.00,519.000000,,2013-08-14 18:34:00,
2013-08-14 14:13:00,64.0,47.0,-100.00,NNW,347,5.0,9.0,54,0.00,,,0.00,454.000000,,2013-08-14 19:13:00,
2013-08-14 14:32:00,64.0,47.0,-100.00,NNW,347,5.0,9.0,54,0.00,,,0.00,454.000000,,2013-08-14 19:32:00,
2013-08-14 15:12:00,66.0,45.0,-100.00,West,266,6.0,13.0,46,0.00,,,0.00,612.000000,,2013-08-14 20:12:00,
2013-08-14 16:13:00,66.0,46.0,-100.00,NNW,331,3.0,9.0,49,0.00,,,0.00,501.000000,,2013-08-14 21:13:00,
2013-08-14 16:24:00,66.0,46.0,-100.00,NNW,331,3.0,9.0,49,0.00,,,0.00,501.000000,,2013-08-14 21:24:00,
2013-08-14 16:34:00,66.0,46.0,-100.00,NNW,331,3.0,9.0,49,0.00,,,0.00,501.000000,,2013-08-14 21:34:00,
2013-08-14 17:13:00,68.0,45.0,-100.00,NW,307,5.0,13.0,44,0.00,,,0.00,607.000000,,2013-08-14 22:13:00,
2013-08-14 17:23:00,68.0,45.0,-100.00,NW,307,5.0,13.0,44,0.00,,,0.00,607.000000,,2013-08-14 22:23:00,
2013-08-14 17:35:00,68.0,45.0,-100.00,NW,307,5.0,13.0,44,0.00,,,0.00,607.000000,,2013-08-14 22:35:00,
2013-08-14 17:37:00,65.0,45.0,-100.00,North,7,6.0,14.0,48,0.00,,,0.00,415.000000,,2013-08-14 22:37:00,
2013-08-14 18:13:00,65.0,45.0,-100.00,North,7,6.0,14.0,48,0.00,,,0.00,415.000000,,2013-08-14 23:13:00,
2013-08-14 18:25:00,65.0,45.0,-100.00,North,7,6.0,14.0,48,0.00,,,0.00,415.000000,,2013-08-14 23:25:00,
2013-08-14 19:12:00,65.0,43.0,-100.00,NW,313,4.0,11.0,45,0.00,,,0.00,359.000000,,2013-08-15 00:12:00,
2013-08-14 19:23:00,65.0,43.0,-100.00,NW,313,4.0,11.0,45,0.00,,,0.00,359.000000,,2013-08-15 00:23:00,
2013-08-14 19:32:00,65.0,43.0,-100.00,NW,313,4.0,11.0,45,0.00,,,0.00,359.000000,,2013-08-15 00:32:00,
2013-08-14 20:16:00,59.0,44.0,-100.00,WNW,302,2.0,7.0,57,0.00,,,0.00,119.000000,,2013-08-15 01:16:00,
2013-08-14 20:22:00,59.0,44.0,-100.00,WNW,302,2.0,7.0,57,0.00,,,0.00,119.000000,,2013-08-15 01:22:00,
2013-08-14 20:32:00,59.0,44.0,-100.00,WNW,302,2.0,7.0,57,0.00,,,0.00,119.000000,,2013-08-15 01:32:00,
2013-08-14 21:11:00,51.0,47.0,-100.00,SSW,213,1.0,3.0,85,0.00,,,0.00,9.000000,,2013-08-15 02:11:00,
2013-08-14 21:21:00,51.0,47.0,-100.00,SSW,213,1.0,3.0,85,0.00,,,0.00,9.000000,,2013-08-15 02:21:00,
2013-08-14 21:31:00,51.0,47.0,-100.00,SSW,213,1.0,3.0,85,0.00,,,0.00,9.000000,,2013-08-15 02:31:00,
2013-08-14 22:11:00,46.0,44.0,-100.00,SSW,199,0.0,0.0,94,0.00,,,-99.99,0.000000,,2013-08-15 03:11:00,
2013-08-14 22:22:00,46.0,44.0,-100.00,SSW,199,0.0,0.0,94,0.00,,,-99.99,0.000000,,2013-08-15 03:22:00,
2013-08-14 22:33:00,46.0,44.0,-100.00,SSW,199,0.0,0.0,94,0.00,,,-99.99,0.000000,,2013-08-15 03:33:00,
2013-08-14 23:12:00,44.0,43.0,-100.00,SSW,206,0.0,0.0,98,0.00,,,0.00,0.000000,,2013-08-15 04:12:00,
2013-08-14 23:23:00,44.0,43.0,-100.00,SSW,206,0.0,0.0,98,0.00,,,0.00,0.000000,,2013-08-15 04:23:00,
2013-08-14 23:32:00,44.0,43.0,-100.00,SSW,206,0.0,0.0,98,0.00,,,0.00,0.000000,,2013-08-15 04:32:00,